Home   Weather   Freehold   Past weeks

Flag for USA Past Weather in Freehold, New Jersey, USA — Yesterday and Last 2 Weeks

43 °F


Feels Like: 38 °F
Forecast: 42 / 60 °F
Wind: 9 mph from West

Location: Belmar-Farmdale

Current Time: Oct 23, 2016 at 3:53:12 AM

Latest Report: Oct 23, 2016 at 2:56 AM

Visibility: 10 mi

Pressure: 29.79 "Hg

Humidity: 68%

Dew Point: 33 °F

Location of FreeholdLocation

Past Weather in Freehold — Graph


Freehold Temperature Yesterday

Maximum temperature yesterday: 59 °F (at 12:56 AM)
Minimum temperature yesterday: 45 °F (at 11:56 PM)
Average temperature yesterday: 50 °F

High & Low Weather Summary for the Past Weeks

High85 °F (Oct 19, 2:56 PM)100% (Oct 8, 7:56 AM)30.50 "Hg (Oct 8, 7:56 AM)
Low38 °F (Oct 11, 5:56 AM)30% (Oct 10, 2:56 PM)29.42 "Hg (Oct 22, 12:56 AM)
Average59 °F79%30.09 "Hg
* Reported Oct 8 2:56 AM — Oct 23 2:56 AM, Freehold, Weather by CustomWeather, © 2016

Note: Actual official high and low records may vary slightly from our data, if they occured in-between our weather recording intervals... More about our weather records


Freehold Weather History for the Previous 24 Hours

Scroll right to see more
Time TempWeatherWind HumidityBarometerVisibility
2:56 AM
Sun, Oct 23
43 °FClear.9 mph68%29.79 "Hg10 mi
1:56 AM44 °FClear.9 mph65%29.78 "Hg10 mi
12:56 AM45 °FClear.12 mph60%29.76 "Hg10 mi
11:56 PM
Sat, Oct 22
45 °FClear.10 mph60%29.75 "Hg10 mi
10:56 PM46 °FClear.14 mph61%29.74 "Hg10 mi
9:56 PM46 °FClear.12 mph58%29.73 "Hg10 mi
8:56 PM48 °FOvercast.16 mph54%29.71 "Hg10 mi
7:56 PM49 °FPassing clouds.16 mph57%29.68 "Hg10 mi
6:56 PM50 °FPartly cloudy.17 mph59%29.64 "Hg10 mi
5:56 PM49 °FScattered clouds.14 mph71%29.62 "Hg10 mi
4:56 PM50 °FMore clouds than sun.22 mph68%29.59 "Hg10 mi
3:56 PM50 °FMostly cloudy.23 mph68%29.56 "Hg10 mi
2:56 PM49 °FLight rain. Cloudy.18 mph84%29.55 "Hg10 mi
1:56 PM50 °FLight rain. Mostly cloudy.15 mph83%29.53 "Hg10 mi
12:56 PM48 °FLight rain. Mostly cloudy.15 mph89%29.53 "Hg10 mi
11:56 AM46 °FLight rain. More clouds than sun.18 mph93%29.51 "Hg10 mi
10:56 AM47 °FLight rain. Overcast.20 mph93%29.49 "Hg10 mi
9:56 AM48 °FLight rain. More clouds than sun.18 mph89%29.47 "Hg10 mi
8:56 AM49 °FMostly cloudy.15 mph90%29.46 "Hg10 mi
7:56 AM48 °FLight rain. Mostly cloudy.13 mph96%29.44 "Hg10 mi
6:56 AM49 °FLight rain. Mostly cloudy.15 mph97%29.42 "Hg10 mi
5:56 AM51 °FLight rain. Overcast.17 mph92%29.43 "Hg10 mi
4:56 AM51 °FLight rain. Overcast.13 mph96%29.43 "Hg10 mi
3:56 AM51 °FLight rain. Overcast.12 mph96%29.44 "Hg10 mi
Weather by CustomWeather, © 2016

See weather overviewHow to use our weather pages